When you browse on this site, cookies collect data to enhance your experience and personalize the content and advertising you see.
Visit our Privacy Policy to learn more. By continuing to use the site, you agree to this use of cookies and data.
  • In Netherlands
  • List of Countries
  • For 7 days
  • Water Temperature
  • Satellite Maps
  • Weather Map
  • Weather Widgets
  • user-avatar
    Login

    Hourly Weather Międzyrzec Podlaski

    Today, 23 April, Tuesday

    Time Temperature Precipitation Wind Pressure Humidity
    00:00 +7°C° 0 mm 4 mps 755 mmHg 59%
    01:00 +7°C° 0 mm 4 mps 755 mmHg 60%
    02:00 +7°C° 0 mm 4 mps 755 mmHg 61%
    03:00 +6°C° 0 mm 4 mps 755 mmHg 61%
    04:00 +6°C° 0 mm 5 mps 755 mmHg 62%
    05:00 +6°C° 0 mm 5 mps 755 mmHg 63%
    06:00 +7°C° 0 mm 6 mps 755 mmHg 60%
    07:00 +9°C° 0 mm 7 mps 755 mmHg 57%
    08:00 +10°C° 0 mm 8 mps 755 mmHg 52%
    09:00 +12°C° 0 mm 8 mps 755 mmHg 48%
    10:00 +13°C° 0 mm 9 mps 755 mmHg 45%
    11:00 +14°C° 0 mm 10 mps 755 mmHg 41%
    12:00 +16°C° 0 mm 10 mps 755 mmHg 41%
    13:00 +16°C° 0 mm 10 mps 755 mmHg 40%
    14:00 +17°C° 0 mm 10 mps 755 mmHg 40%
    15:00 +17°C° 0 mm 9 mps 754 mmHg 41%
    16:00 +17°C° 0 mm 9 mps 754 mmHg 43%
    17:00 +16°C° 0 mm 8 mps 753 mmHg 45%
    18:00 +15°C° 0 mm 7 mps 753 mmHg 48%
    19:00 +14°C° 0 mm 7 mps 753 mmHg 51%
    20:00 +11°C° 0 mm 6 mps 753 mmHg 55%
    21:00 +11°C° 0 mm 6 mps 753 mmHg 54%
    22:00 +11°C° 0 mm 6 mps 753 mmHg 54%
    23:00 +10°C° 0 mm 7 mps 754 mmHg 53%

    Tomorrow, 24 April, Wednesday

    Time Temperature Precipitation Wind Pressure Humidity
    00:00 +10°C° 0 mm 7 mps 753 mmHg 53%
    01:00 +10°C° 0 mm 7 mps 753 mmHg 54%
    02:00 +9°C° 0 mm 7 mps 753 mmHg 54%
    03:00 +9°C° 0 mm 7 mps 753 mmHg 55%
    04:00 +9°C° 0 mm 7 mps 753 mmHg 56%
    05:00 +8°C° 0 mm 7 mps 753 mmHg 57%
    06:00 +9°C° 0 mm 8 mps 753 mmHg 55%
    07:00 +10°C° 0 mm 9 mps 753 mmHg 54%
    08:00 +10°C° 0 mm 9 mps 753 mmHg 52%
    09:00 +11°C° 0 mm 9 mps 753 mmHg 51%
    10:00 +12°C° 0 mm 9 mps 753 mmHg 49%
    11:00 +13°C° 0 mm 10 mps 753 mmHg 47%
    12:00 +14°C° 0 mm 10 mps 753 mmHg 47%
    13:00 +16°C° 0 mm 10 mps 752 mmHg 47%
    14:00 +17°C° 0 mm 10 mps 752 mmHg 47%
    15:00 +17°C° 0 mm 9 mps 752 mmHg 49%
    16:00 +17°C° 0 mm 8 mps 752 mmHg 50%
    17:00 +17°C° 0 mm 8 mps 752 mmHg 52%
    18:00 +16°C° 0 mm 7 mps 752 mmHg 55%
    19:00 +15°C° 0 mm 6 mps 752 mmHg 59%
    20:00 +14°C° 0 mm 6 mps 752 mmHg 62%
    21:00 +14°C° 0 mm 6 mps 752 mmHg 63%
    22:00 +13°C° 0 mm 6 mps 752 mmHg 64%
    23:00 +13°C° 0 mm 6 mps 752 mmHg 65%

    Day after tomorrow, 25 April, Thursday

    Time Temperature Precipitation Wind Pressure Humidity
    00:00 +13°C° 0 mm 6 mps 752 mmHg 66%
    01:00 +11°C° 0 mm 6 mps 751 mmHg 66%
    02:00 +10°C° 0 mm 6 mps 751 mmHg 67%
    03:00 +10°C° 0.1 mm 6 mps 751 mmHg 68%
    04:00 +10°C° 0.1 mm 5 mps 751 mmHg 69%
    05:00 +9°C° 0.1 mm 5 mps 751 mmHg 70%
    06:00 +10°C° 0.7 mm 6 mps 751 mmHg 73%
    07:00 +10°C° 0.7 mm 6 mps 751 mmHg 76%
    08:00 +11°C° 0.7 mm 6 mps 751 mmHg 79%
    09:00 +13°C° 0.5 mm 6 mps 751 mmHg 76%
    10:00 +15°C° 0.5 mm 6 mps 751 mmHg 72%
    11:00 +17°C° 0.5 mm 6 mps 751 mmHg 69%
    12:00 +19°C° 0 mm 6 mps 751 mmHg 64%
    13:00 +21°C° 0 mm 7 mps 751 mmHg 59%
    14:00 +23°C° 0 mm 7 mps 751 mmHg 54%
    15:00 +22°C° 0.2 mm 6 mps 750 mmHg 56%
    16:00 +22°C° 0.2 mm 6 mps 750 mmHg 57%
    17:00 +22°C° 0.2 mm 5 mps 750 mmHg 59%
    18:00 +20°C° 0.1 mm 5 mps 750 mmHg 65%
    19:00 +19°C° 0.1 mm 4 mps 750 mmHg 72%
    20:00 +17°C° 0.1 mm 4 mps 750 mmHg 78%
    21:00 +17°C° 0 mm 4 mps 750 mmHg 81%
    22:00 +15°C° 0 mm 4 mps 750 mmHg 83%
    23:00 +14°C° 0 mm 4 mps 750 mmHg 85%

    26 April, Friday

    Time Temperature Precipitation Wind Pressure Humidity
    00:00 +14°C° 0 mm 4 mps 750 mmHg 88%
    01:00 +13°C° 0 mm 4 mps 750 mmHg 90%
    02:00 +12°C° 0 mm 3 mps 749 mmHg 93%
    03:00 +12°C° 0 mm 3 mps 749 mmHg 94%
    04:00 +12°C° 0 mm 3 mps 749 mmHg 95%
    05:00 +12°C° 0 mm 3 mps 749 mmHg 96%
    06:00 +13°C° 0 mm 3 mps 748 mmHg 92%
    07:00 +14°C° 0 mm 3 mps 748 mmHg 88%
    08:00 +15°C° 0 mm 4 mps 748 mmHg 85%
    09:00 +18°C° 0 mm 4 mps 748 mmHg 78%
    10:00 +20°C° 0 mm 4 mps 747 mmHg 72%
    11:00 +22°C° 0 mm 4 mps 747 mmHg 66%
    12:00 +23°C° 0 mm 5 mps 747 mmHg 61%
    13:00 +26°C° 0 mm 5 mps 746 mmHg 55%
    14:00 +27°C° 0 mm 6 mps 746 mmHg 50%
    15:00 +27°C° 0 mm 5 mps 745 mmHg 51%
    16:00 +27°C° 0 mm 5 mps 745 mmHg 51%
    17:00 +26°C° 0 mm 5 mps 745 mmHg 52%
    18:00 +25°C° 0 mm 5 mps 745 mmHg 56%
    19:00 +22°C° 0 mm 5 mps 744 mmHg 61%
    20:00 +21°C° 0 mm 5 mps 744 mmHg 65%
    21:00 +20°C° 0 mm 4 mps 744 mmHg 68%
    22:00 +19°C° 0 mm 4 mps 744 mmHg 72%
    23:00 +18°C° 0 mm 3 mps 744 mmHg 75%

    27 April, Saturday

    Time Temperature Precipitation Wind Pressure Humidity
    00:00 +18°C° 0.1 mm 3 mps 744 mmHg 76%
    01:00 +17°C° 0.1 mm 3 mps 744 mmHg 78%
    02:00 +17°C° 0.1 mm 3 mps 743 mmHg 79%
    03:00 +17°C° 0.8 mm 3 mps 743 mmHg 81%
    04:00 +16°C° 0.8 mm 3 mps 743 mmHg 83%
    05:00 +16°C° 0.8 mm 3 mps 743 mmHg 86%
    06:00 +17°C° 0.2 mm 4 mps 743 mmHg 81%
    07:00 +18°C° 0.2 mm 4 mps 743 mmHg 77%
    08:00 +19°C° 0.2 mm 5 mps 743 mmHg 72%
    09:00 +21°C° 0 mm 5 mps 743 mmHg 66%
    10:00 +22°C° 0 mm 5 mps 743 mmHg 61%
    11:00 +23°C° 0 mm 6 mps 743 mmHg 55%
    12:00 +23°C° 0 mm 6 mps 743 mmHg 54%
    13:00 +24°C° 0 mm 7 mps 743 mmHg 53%
    14:00 +24°C° 0 mm 7 mps 743 mmHg 52%
    15:00 +23°C° 0 mm 7 mps 743 mmHg 57%
    16:00 +21°C° 0 mm 6 mps 743 mmHg 62%
    17:00 +20°C° 0 mm 6 mps 743 mmHg 66%
    18:00 +17°C° 0 mm 6 mps 744 mmHg 71%
    19:00 +16°C° 0 mm 5 mps 744 mmHg 75%
    20:00 +14°C° 0 mm 5 mps 744 mmHg 80%
    21:00 +13°C° 0 mm 5 mps 745 mmHg 80%
    22:00 +12°C° 0 mm 5 mps 745 mmHg 80%
    23:00 +10°C° 0 mm 5 mps 745 mmHg 80%

    28 April, Sunday

    Time Temperature Precipitation Wind Pressure Humidity
    00:00 +9°C° 0 mm 5 mps 746 mmHg 79%
    01:00 +9°C° 0 mm 5 mps 746 mmHg 79%
    02:00 +8°C° 0 mm 5 mps 746 mmHg 78%
    03:00 +8°C° 0 mm 4 mps 746 mmHg 81%
    04:00 +7°C° 0 mm 4 mps 747 mmHg 84%
    05:00 +7°C° 0 mm 4 mps 747 mmHg 86%
    06:00 +8°C° 0 mm 4 mps 747 mmHg 83%
    07:00 +10°C° 0 mm 4 mps 747 mmHg 80%
    08:00 +11°C° 0 mm 4 mps 748 mmHg 77%
    09:00 +12°C° 0 mm 4 mps 748 mmHg 70%
    10:00 +14°C° 0 mm 4 mps 748 mmHg 64%
    11:00 +15°C° 0 mm 4 mps 748 mmHg 58%
    12:00 +17°C° 0 mm 3 mps 748 mmHg 56%
    13:00 +17°C° 0 mm 3 mps 748 mmHg 53%
    14:00 +18°C° 0 mm 3 mps 748 mmHg 51%
    15:00 +18°C° 0 mm 2 mps 748 mmHg 51%
    16:00 +18°C° 0 mm 2 mps 748 mmHg 52%
    17:00 +18°C° 0 mm 2 mps 748 mmHg 52%
    18:00 +17°C° 0 mm 2 mps 748 mmHg 58%
    19:00 +15°C° 0 mm 1 mps 749 mmHg 64%
    20:00 +14°C° 0 mm 1 mps 749 mmHg 70%
    21:00 +13°C° 0 mm 1 mps 749 mmHg 72%
    22:00 +12°C° 0 mm 1 mps 749 mmHg 75%
    23:00 +12°C° 0 mm 1 mps 750 mmHg 77%
    Show more